[[{"header":{"parameterUnit":"m.s-1","parameterCategory":1,"la1":30.2991,"la2":30.254,"lo1":-89.0895,"lo2":-89.0444,"dy":0.0017,"dx":0.0017,"nx":28,"ny":28,"refTime":"2024-08-27T09:00:00:Z","depth":0,"parameterNumber":2,"parameterNumberName":"U-component_of_WINDS"},"data":[0,0,0,0,0,0,0,0,0,0,0,0,0,0,0,0,0,0,0,0,0,0,0,0,0,0,0,0,0,0,0,0,0,0,0,0,0,0,0,0,0,0,0,0,0,0,0,0,0,0,0,0,0,0,0,0,0,0,1.7176,1.7176,0,1.7185,1.7185,1.7185,1.7147,1.7146,1.7145,1.7144,1.7151,1.7152,1.7153,0,0,0,0,0,0,0,0,0,0,0,0,0,1.7125,1.7127,1.7176,1.7176,1.7177,1.7185,1.7185,1.7185,1.7147,1.7146,1.7144,1.7143,1.7151,1.7152,1.7154,0,0,0,0,0,0,0,0,0,0,0,0,0,1.7142,1.7127,1.7176,1.7159,1.7157,1.7185,1.7185,1.7185,1.7147,1.7146,1.7144,1.7142,1.715,1.7152,1.7154,1.7199,0,0,1.7159,1.716,0,0,0,0,0,0,0,0,1.7141,1.7144,1.7161,1.716,1.7158,1.7163,1.717,1.719,1.7148,1.7151,1.7143,1.7142,1.7156,1.7158,1.7163,1.7199,1.72,1.716,1.7161,1.7162,1.7162,0,0,0,0,0,0,0,1.714,1.7143,1.718,1.7161,1.716,1.715,1.715,1.7174,1.7163,1.7151,1.7148,1.7149,1.7155,1.7161,1.7163,1.72,1.716,1.7161,1.7162,1.7163,1.7274,1.7276,0,0,0,0,0,0,1.7142,1.7143,1.7179,1.718,1.7145,1.7152,1.7153,1.7163,1.7163,1.7161,1.7151,1.7148,1.7159,1.7161,1.7163,1.7216,1.7162,1.7163,1.7164,1.7272,1.7274,1.7276,0,0,0,0,0,0,1.7141,1.7145,1.7179,1.7161,1.7164,1.7155,1.7167,1.7164,1.717,1.7163,1.7161,1.7159,1.7158,1.716,1.719,1.7215,1.7164,1.7166,1.727,1.7273,1.7275,1.7322,0,0,0,0,0,0,1.7139,1.7145,1.7162,1.7161,1.7165,1.7207,1.7169,1.7166,1.7174,1.717,1.717,1.7168,1.7156,1.7188,1.7192,1.7217,1.7167,1.7268,1.7271,1.7274,1.7318,1.7326,1.7332,0,0,0,0,0,1.7138,1.7175,1.7163,1.7168,1.7187,1.7208,1.7211,1.7197,1.7176,1.7193,1.7188,1.7168,1.7212,1.7191,1.7196,1.7222,1.7266,1.727,1.7274,1.7314,1.7324,1.7332,0,0,0,0,0,0,1.7178,1.7174,1.7162,1.7199,1.7205,1.7202,1.7223,1.7207,1.7218,1.7214,1.7195,1.7196,1.7229,1.7228,1.7205,1.7265,1.7235,1.7241,1.7264,1.7273,1.7281,1.728,1.7169,0,0,0,0,0,1.7191,1.7209,1.7205,1.7239,1.7242,1.7232,1.7241,1.723,1.7235,1.7236,1.7234,1.7239,1.7253,1.7264,1.7277,1.7318,1.7317,1.7338,1.7345,1.7351,1.7356,1.7377,1.7386,1.729,1.729,1.729,0,0,1.7219,1.7219,1.7231,1.7247,1.725,1.7269,1.7234,1.7256,1.727,1.7239,1.7268,1.7267,1.7271,1.7306,1.7322,1.7307,1.7382,1.7356,1.7361,1.7362,1.7382,1.7391,1.74,1.7293,1.7292,1.7292,0,0,1.7278,1.7281,1.7309,1.7313,1.7318,1.7311,1.7318,1.7318,1.7316,1.7345,1.7323,1.7339,1.7365,1.7369,1.7374,1.7437,1.7418,1.7442,1.7479,1.75,1.7508,1.7514,1.7536,1.7545,1.7446,1.7446,1.7446,0,1.7311,1.734,1.7326,1.7349,1.7356,1.7331,1.736,1.7364,1.7373,1.7378,1.7361,1.7394,1.7395,1.7431,1.7447,1.7452,1.7459,1.7441,1.7508,1.7515,1.7521,1.7541,1.755,1.7449,1.7449,1.7449,1.7448,0,1.738,1.74,1.7423,1.7433,1.7443,1.7469,1.7458,1.747,1.7459,1.7454,1.7483,1.7484,1.7497,1.7505,1.7494,1.754,1.753,1.7511,1.748,1.7533,1.7552,1.756,1.7453,1.7452,1.7451,1.7451,0,0,1.7464,1.7467,1.7475,1.748,1.7484,1.7499,1.7524,1.7537,1.7548,1.7555,1.7575,1.7598,1.7581,1.7587,1.7576,1.7595,1.7644,1.7573,1.7573,1.7586,1.7695,1.7709,1.7718,1.7633,1.7634,1.7636,1.7695,0,1.7522,1.7565,1.7554,1.7596,1.7614,1.7591,1.7613,1.7618,1.7614,1.7629,1.7625,1.7642,1.7617,1.7621,1.7639,1.7635,1.7666,1.763,1.7651,1.7652,1.7649,1.7728,1.7743,1.7798,1.7702,1.7703,1.7704,0,1.7595,1.7607,1.7651,1.7653,1.766,1.768,1.7692,1.7706,1.7711,1.7707,1.7715,1.7701,1.7725,1.7695,1.7728,1.7704,1.7712,1.7711,1.7713,1.7714,1.768,1.773,1.7816,1.7824,1.7716,1.7715,1.7714,0,1.7652,1.7678,1.7708,1.7712,1.7715,1.773,1.7732,1.7735,1.7744,1.7754,1.776,1.7773,1.778,1.779,1.7779,1.7759,1.7814,1.7783,1.781,1.7811,1.7822,1.7821,1.7909,1.7829,1.7829,1.7829,1.7828,0,1.7717,1.7745,1.7733,1.7752,1.7782,1.7769,1.78,1.7799,1.7803,1.782,1.7801,1.7818,1.7803,1.7819,1.7811,1.7839,1.7843,1.784,1.7837,1.7841,1.7841,1.7845,1.784,1.7831,1.783,1.783,1.783,0,1.7784,1.7777,1.7809,1.781,1.781,1.7833,1.7833,1.785,1.7846,1.7869,1.7873,1.7866,1.7884,1.7874,1.7892,1.7887,1.7923,1.7916,1.7921,1.7919,1.7947,1.7944,1.8039,1.8051,1.7964,1.7965,1.7966,0,1.7826,1.7847,1.7851,1.7862,1.7865,1.7883,1.7892,1.788,1.7891,1.7899,1.7915,1.7931,1.7942,1.7971,1.7967,1.7981,1.7973,1.8006,1.7975,1.7978,1.7973,1.7971,1.7973,1.8011,1.8012,1.8013,1.8014,0,1.7901,1.7897,1.7911,1.7925,1.7937,1.7947,1.7956,1.7965,1.7954,1.7967,1.7984,1.7994,1.8013,1.8028,1.804,1.8042,1.8026,1.8024,1.8031,1.8034,1.8037,1.8035,1.7937,1.8021,1.8021,1.802,1.802,1.8019,1.7956,1.7974,1.7979,1.7996,1.8002,1.801,1.8026,1.8025,1.8039,1.8054,1.8046,1.8067,1.8072,1.8087,1.809,1.8106,1.8093,1.8103,1.8106,1.8108,1.8111,1.8035,1.8108,1.8108,1.8108,1.8108,1.8108,0,1.8029,1.8032,1.8048,1.8061,1.8074,1.8059,1.8068,1.808,1.8099,1.8105,1.8118,1.8139,1.8154,1.8152,1.8166,1.818,1.8173,1.8184,1.8182,1.8182,1.8123,1.8115,1.8189,1.8189,1.8189,1.8189,1.8189,1.8189,1.8068,1.8098,1.8095,1.8127,1.8129,1.815,1.8156,1.8164,1.8169,1.8193,1.8206,1.8205,1.8208,1.8223,1.8236,1.8235,1.8241,1.8254,1.8251,1.8195,1.8186,1.8179,1.8171,1.8256,1.8256,1.8309,1.8309,1.8309]},{"header":{"parameterUnit":"m.s-1","parameterCategory":1,"la1":30.2991,"la2":30.254,"lo1":-89.0895,"lo2":-89.0444,"dy":0.0017,"dx":0.0017,"nx":28,"ny":28,"refTime":"2024-08-27T09:00:00:Z","depth":0,"parameterNumber":3,"parameterNumberName":"V-component_of_WINDS"},"data":[0,0,0,0,0,0,0,0,0,0,0,0,0,0,0,0,0,0,0,0,0,0,0,0,0,0,0,0,0,0,0,0,0,0,0,0,0,0,0,0,0,0,0,0,0,0,0,0,0,0,0,0,0,0,0,0,0,0,-2.4458,-2.4458,0,-2.4518,-2.4518,-2.4519,-2.4515,-2.4515,-2.4514,-2.4513,-2.4571,-2.4573,-2.4575,0,0,0,0,0,0,0,0,0,0,0,0,0,-2.4337,-2.4339,-2.4458,-2.4459,-2.4459,-2.4518,-2.4518,-2.4519,-2.4516,-2.4514,-2.4513,-2.4512,-2.457,-2.4573,-2.4576,0,0,0,0,0,0,0,0,0,0,0,0,0,-2.4392,-2.434,-2.4458,-2.4465,-2.4466,-2.4517,-2.4518,-2.4519,-2.4516,-2.4514,-2.4513,-2.4512,-2.4569,-2.4572,-2.4576,-2.4624,0,0,-2.4587,-2.4588,0,0,0,0,0,0,0,0,-2.4389,-2.4397,-2.4463,-2.4464,-2.4466,-2.4508,-2.4497,-2.4554,-2.4516,-2.4497,-2.4513,-2.4511,-2.4551,-2.4556,-2.457,-2.4626,-2.4629,-2.4587,-2.4589,-2.4591,-2.4592,0,0,0,0,0,0,0,-2.4385,-2.4394,-2.4481,-2.4464,-2.4466,-2.4464,-2.447,-2.4508,-2.453,-2.4498,-2.4498,-2.4505,-2.4551,-2.4566,-2.4571,-2.463,-2.4587,-2.459,-2.4592,-2.4594,-2.4728,-2.4729,0,0,0,0,0,0,-2.4381,-2.4391,-2.4479,-2.4483,-2.4424,-2.4467,-2.4474,-2.4496,-2.453,-2.4534,-2.4507,-2.4505,-2.4561,-2.4567,-2.4573,-2.463,-2.4591,-2.4594,-2.4596,-2.4727,-2.4728,-2.473,0,0,0,0,0,0,-2.4378,-2.4388,-2.4477,-2.4437,-2.4448,-2.447,-2.4494,-2.4497,-2.4512,-2.4536,-2.454,-2.4518,-2.456,-2.4568,-2.4611,-2.4632,-2.4596,-2.4599,-2.4725,-2.4727,-2.4729,-2.4746,0,0,0,0,0,0,-2.4375,-2.4388,-2.4407,-2.4438,-2.4451,-2.4515,-2.4496,-2.45,-2.4519,-2.4518,-2.4548,-2.4551,-2.456,-2.4606,-2.4615,-2.4637,-2.4601,-2.4723,-2.4726,-2.4728,-2.4744,-2.4749,-2.4753,0,0,0,0,0,-2.437,-2.4408,-2.4408,-2.4418,-2.4475,-2.4517,-2.4524,-2.4533,-2.4521,-2.4539,-2.4555,-2.455,-2.4629,-2.461,-2.462,-2.4643,-2.4722,-2.4725,-2.4728,-2.4742,-2.4748,-2.4753,0,0,0,0,0,0,-2.4378,-2.4412,-2.4412,-2.4462,-2.4486,-2.4516,-2.454,-2.4539,-2.4567,-2.4565,-2.4575,-2.4581,-2.4625,-2.4639,-2.4617,-2.4691,-2.4674,-2.4679,-2.468,-2.4686,-2.4691,-2.4686,-2.4604,0,0,0,0,0,-2.4386,-2.4418,-2.4446,-2.4487,-2.4499,-2.4518,-2.4536,-2.4541,-2.4567,-2.4577,-2.4595,-2.4619,-2.4649,-2.4669,-2.4698,-2.4746,-2.4752,-2.4767,-2.4772,-2.4775,-2.4779,-2.4806,-2.4812,-2.4741,-2.4741,-2.4741,0,0,-2.4401,-2.4424,-2.4443,-2.4489,-2.4508,-2.454,-2.4526,-2.456,-2.4584,-2.4582,-2.4624,-2.4638,-2.4666,-2.4712,-2.4733,-2.4724,-2.4801,-2.4779,-2.4782,-2.4784,-2.481,-2.4816,-2.4822,-2.4743,-2.4743,-2.4742,0,0,-2.4446,-2.4467,-2.4503,-2.4524,-2.4554,-2.4566,-2.4575,-2.4605,-2.4615,-2.4658,-2.4657,-2.4684,-2.4736,-2.4755,-2.4772,-2.4825,-2.4822,-2.4834,-2.4857,-2.4883,-2.4888,-2.4893,-2.4911,-2.4918,-2.4838,-2.4838,-2.4838,0,-2.4461,-2.451,-2.4521,-2.4556,-2.4576,-2.4577,-2.4613,-2.4632,-2.467,-2.4683,-2.4674,-2.4739,-2.4757,-2.4808,-2.4821,-2.4835,-2.4844,-2.483,-2.4887,-2.4892,-2.4897,-2.4914,-2.4921,-2.484,-2.484,-2.4839,-2.4839,0,-2.4527,-2.4561,-2.4586,-2.4624,-2.4647,-2.4682,-2.4698,-2.4719,-2.4723,-2.4736,-2.4779,-2.4801,-2.4835,-2.4847,-2.4851,-2.4898,-2.4892,-2.4885,-2.4867,-2.4905,-2.4921,-2.4928,-2.4841,-2.4841,-2.4841,-2.484,0,0,-2.4576,-2.4621,-2.463,-2.4647,-2.4682,-2.4708,-2.4743,-2.4777,-2.4795,-2.4821,-2.485,-2.4894,-2.4888,-2.4907,-2.4912,-2.4935,-2.4974,-2.4925,-2.4925,-2.4932,-2.5027,-2.5032,-2.5039,-2.4973,-2.4975,-2.4976,-2.5024,0,-2.4624,-2.4687,-2.4699,-2.4754,-2.4785,-2.4787,-2.4817,-2.4841,-2.4854,-2.4881,-2.4895,-2.4926,-2.4916,-2.4927,-2.495,-2.4965,-2.4993,-2.4962,-2.4999,-2.5,-2.4991,-2.5048,-2.5053,-2.5098,-2.5031,-2.5032,-2.5033,0,-2.4687,-2.4717,-2.4775,-2.4805,-2.4819,-2.4846,-2.4878,-2.4905,-2.4931,-2.4939,-2.4961,-2.4965,-2.5,-2.4982,-2.503,-2.5008,-2.5025,-2.5034,-2.5036,-2.5039,-2.5018,-2.5051,-2.5112,-2.5119,-2.5043,-2.5042,-2.5042,0,-2.4717,-2.4771,-2.4812,-2.4827,-2.4864,-2.4883,-2.4899,-2.4925,-2.4944,-2.4972,-2.4985,-2.5016,-2.5033,-2.5056,-2.5068,-2.5054,-2.5115,-2.5098,-2.5122,-2.5121,-2.5133,-2.5132,-2.5197,-2.5146,-2.5146,-2.5146,-2.5145,0,-2.4768,-2.4803,-2.4826,-2.4852,-2.4891,-2.4904,-2.4942,-2.4958,-2.4981,-2.5008,-2.5012,-2.5038,-2.5052,-2.508,-2.5089,-2.5127,-2.5135,-2.5141,-2.5143,-2.514,-2.5139,-2.515,-2.5147,-2.5147,-2.5147,-2.5147,-2.5146,0,-2.4807,-2.4824,-2.4869,-2.4901,-2.4909,-2.4937,-2.4963,-2.4988,-2.5001,-2.5036,-2.5045,-2.5066,-2.5099,-2.5113,-2.5153,-2.5159,-2.5203,-2.5203,-2.5194,-2.5194,-2.5217,-2.5214,-2.5289,-2.53,-2.5243,-2.5243,-2.5244,0,-2.4837,-2.4865,-2.49,-2.4919,-2.4936,-2.4967,-2.4988,-2.5001,-2.5022,-2.5055,-2.5075,-2.5109,-2.5136,-2.5188,-2.5206,-2.5236,-2.5236,-2.5261,-2.5241,-2.5237,-2.5236,-2.5233,-2.5236,-2.5264,-2.5265,-2.5265,-2.5265,0,-2.489,-2.4897,-2.4927,-2.4961,-2.4985,-2.5012,-2.5037,-2.5053,-2.507,-2.5094,-2.5128,-2.5149,-2.5191,-2.5223,-2.5255,-2.527,-2.527,-2.5272,-2.5279,-2.5276,-2.5269,-2.5272,-2.5203,-2.527,-2.5269,-2.5269,-2.5269,-2.5268,-2.4925,-2.4949,-2.4978,-2.5011,-2.5032,-2.5056,-2.5081,-2.5098,-2.5127,-2.5163,-2.5169,-2.5205,-2.5231,-2.5274,-2.5291,-2.5319,-2.5312,-2.5323,-2.5325,-2.5327,-2.5328,-2.5266,-2.5325,-2.5324,-2.5324,-2.5324,-2.5324,0,-2.4977,-2.4996,-2.5026,-2.5063,-2.5089,-2.5089,-2.5117,-2.5138,-2.5171,-2.5196,-2.5223,-2.5262,-2.5294,-2.5314,-2.5346,-2.5365,-2.5365,-2.5372,-2.537,-2.5374,-2.5332,-2.5323,-2.5371,-2.5371,-2.5371,-2.5371,-2.5371,-2.5371,-2.5007,-2.5048,-2.5059,-2.511,-2.5128,-2.5165,-2.5181,-2.5203,-2.5223,-2.5267,-2.5294,-2.5308,-2.5331,-2.5364,-2.5393,-2.5399,-2.541,-2.5417,-2.5421,-2.5382,-2.5377,-2.5372,-2.5363,-2.5419,-2.5419,-2.5461,-2.5461,-2.5461]}]]